sat.trackr.live / text

‹ back to catalog

STARLINK-5387

NORAD 54842 · 2022-177Y

PAYLOAD ACTIVE UNKNOWN

§ Identity

Operator
Country
US
Launch date
2022-12-28
Launch site
AFETR
Launch vehicle
Mass (kg)
RCS (m²)

Purposes: comms

External: N2YO · Heavens-Above · Gunter

§ Orbital elements

Epoch: 2026-09-20T00:31:06.525984Z

Period
94.27 min
Inclination
43.0016°
Eccentricity
0.0001102
Mean motion
15.27576392 rev/d
Perigee alt
482.3 km
Apogee alt
483.8 km
Semi-major
6,861.2 km
B*
7.5713e-6
RAAN
115.1822°
Arg perigee
245.4810°
Mean anomaly
114.5927°
Rev number
20,668

§ Raw data

STARLINK-53871 54842U 22177Y   26263.02160331 -.00000054  00000+0  75713-5 0  99942 54842  43.0016 115.1822 0001102 245.4810 114.5927 15.27576392206685

JSON: /api/v1/satellites/54842 · /tle

For live sub-satellite position, see the globe view (requires WebGL).

§ Visibility from observer

Set your observer location to see the next 7 days of passes ≥ 10°. The values pass through the URL so the page stays shareable.

No JS? Fill the form by hand. The geolocation button needs JavaScript.